Imperial, NE

3:13 PM MST on December 08, 2016 (GMT -0700)
Imperial Municipal

Weather History for KIML - March, 2013

Change the Weather History Date:

Saturday, March 2, 2013

  Actual Average Record
Temperature  
Mean Temperature 44 °F 36 °F  
Max Temperature 60 °F 49 °F 79 °F (1901)
Min Temperature 28 °F 22 °F -7 °F (1947)
Degree Days  
Heating Degree Days 21 29  
Month to date heating degree days 52 59  
Cooling Degree Days 0 0  
Month to date cooling degree days 0 0  
Year to date cooling degree days 0 0  
Moisture  
Dew Point 31 °F    
Average Humidity 61    
Maximum Humidity 85    
Minimum Humidity 36    
Precipitation  
Precipitation 0.00 in 0.01 in 1.01 in (1940)
Sea Level Pressure  
Sea Level Pressure 30.18 in    
Wind  
Wind Speed 9 mph (West)    
Max Wind Speed 23 mph    
Max Gust Speed 30 mph    
Visibility 10 miles    
Events      
T = Trace of Precipitation, MM = Missing Value Source: NWS Daily Summary

Daily Weather History Graph

Daily Weather History Graph

Search for Another Location

Airport or City:

Trip Planner

Search our weather history database for the weather conditions in past years. The results will help you decide how hot, cold, wet, or windy it might be!

Date:

Astronomy

Mar. 02, 2013 Rise Set
Actual Time 6:18 AM MST 5:39 PM MST
Civil Twilight 5:50 AM MST 6:06 PM MST
Nautical Twilight 5:19 AM MST 6:38 PM MST
Astronomical Twilight 4:47 AM MST 7:10 PM MST
Moon 11:22 PM MST (3/2) 8:46 AM MST (3/2)
Length of Visible Light 12h 15m
Length of Day
11h 21m
Waning Gibbous, 73% of the Moon is Illuminated
Mar 2
Waning Gibbous
Mar 4
Last Quarter
Mar 11
New
Mar 19
First Quarter
Mar 27
Full

Hourly Weather History & Observations

Time (MST) Temp. Windchill Dew Point Humidity Pressure Visibility Wind Dir Wind Speed Gust Speed Precip Events Conditions
12:53 AM 28.9 °F 22.8 °F 24.1 °F 82% 30.31 in 10.0 mi SSW 5.8 mph - N/A   Mostly Cloudy
1:53 AM 30.0 °F 26.5 °F 26.1 °F 85% 30.29 in 10.0 mi SW 3.5 mph - N/A   Overcast
2:53 AM 28.9 °F 23.9 °F 25.0 °F 85% 30.27 in 10.0 mi WSW 4.6 mph - N/A   Mostly Cloudy
3:53 AM 30.9 °F - 27.0 °F 85% 30.26 in 10.0 mi Calm Calm - N/A   Overcast
4:53 AM 33.1 °F - 28.0 °F 82% 30.25 in 10.0 mi Calm Calm - N/A   Overcast
5:53 AM 35.1 °F 31.0 °F 30.0 °F 82% 30.26 in 10.0 mi West 4.6 mph - N/A   Overcast
6:53 AM 35.1 °F 29.3 °F 30.0 °F 82% 30.28 in 10.0 mi WNW 6.9 mph - N/A   Scattered Clouds
7:53 AM 37.9 °F 35.5 °F 32.0 °F 79% 30.27 in 10.0 mi WNW 3.5 mph - N/A   Clear
8:53 AM 45.0 °F 38.5 °F 33.1 °F 63% 30.26 in 10.0 mi NW 13.8 mph - N/A   Clear
9:53 AM 48.9 °F - 33.1 °F 54% 30.24 in 10.0 mi NW 17.3 mph 28.8 mph N/A   Clear
10:53 AM 51.1 °F - 33.1 °F 50% 30.23 in 10.0 mi NW 20.7 mph 27.6 mph N/A   Clear
11:53 AM 54.0 °F - 34.0 °F 47% 30.21 in 10.0 mi NW 19.6 mph 27.6 mph N/A   Clear
12:53 PM 55.9 °F - 35.1 °F 45% 30.18 in 10.0 mi WNW 16.1 mph 23.0 mph N/A   Clear
1:53 PM 57.0 °F - 32.0 °F 39% 30.15 in 10.0 mi NW 15.0 mph - N/A   Clear
2:53 PM 57.9 °F - 33.1 °F 39% 30.14 in 10.0 mi NW 10.4 mph - N/A   Clear
3:53 PM 59.0 °F - 32.0 °F 36% 30.12 in 10.0 mi WNW 9.2 mph - N/A   Clear
4:53 PM 57.0 °F - 35.1 °F 44% 30.10 in 10.0 mi WNW 6.9 mph - N/A   Clear
5:53 PM 48.2 °F - 33.8 °F 58% 30.08 in 10.0 mi SW 4.6 mph - N/A   Clear
6:53 PM 42.1 °F 38.4 °F 34.0 °F 73% 30.12 in 10.0 mi WSW 5.8 mph - N/A   Clear
7:53 PM 45.0 °F 39.7 °F 33.1 °F 63% 30.10 in 10.0 mi WNW 10.4 mph - N/A   Clear
8:53 PM 44.1 °F 39.0 °F 32.0 °F 63% 30.08 in 10.0 mi West 9.2 mph - N/A   Clear
9:53 PM 37.0 °F 29.8 °F 30.0 °F 76% 30.07 in 10.0 mi West 10.4 mph - N/A   Clear
10:53 PM 37.9 °F 30.9 °F 30.0 °F 73% 30.05 in 10.0 mi WNW 10.4 mph - N/A   Clear
11:53 PM 37.0 °F 31.6 °F 28.9 °F 73% 30.03 in 10.0 mi West 6.9 mph - N/A   Clear